TimeCST,TemperatureF,Dew PointF,Humidity,Sea Level PressureIn,VisibilityMPH,Wind Direction,Wind SpeedMPH,Gust SpeedMPH,PrecipitationIn,Events,Conditions,WindDirDegrees,DateUTC
12:15 AM,40.1,30.7,69,29.67,10.0,WNW,8.1,-,N/A,,Clear,300,2014-01-13 06:15:00
12:35 AM,39.2,30.2,70,29.67,10.0,WNW,5.8,-,N/A,,Clear,290,2014-01-13 06:35:00
12:55 AM,38.8,29.7,70,29.68,10.0,West,8.1,-,N/A,,Clear,270,2014-01-13 06:55:00
1:15 AM,37.8,29.3,72,29.68,10.0,West,5.8,-,N/A,,Scattered Clouds,280,2014-01-13 07:15:00
1:35 AM,37.4,29.3,73,29.70,10.0,West,8.1,-,N/A,,Mostly Cloudy,280,2014-01-13 07:35:00
1:55 AM,37.4,29.1,72,29.71,10.0,West,9.2,-,N/A,,Overcast,280,2014-01-13 07:55:00
2:15 AM,37.6,28.8,70,29.70,10.0,West,9.2,-,N/A,,Scattered Clouds,270,2014-01-13 08:15:00
2:35 AM,36.7,28.4,72,29.71,10.0,West,10.4,-,N/A,,Clear,270,2014-01-13 08:35:00
2:55 AM,35.2,28.2,76,29.72,10.0,West,11.5,-,N/A,,Scattered Clouds,280,2014-01-13 08:55:00
3:15 AM,32.9,27.5,81,29.72,10.0,West,8.1,-,N/A,,Clear,270,2014-01-13 09:15:00
3:35 AM,32.9,27.5,81,29.73,10.0,West,9.2,-,N/A,,Clear,270,2014-01-13 09:35:00
3:55 AM,32.9,28.4,84,29.74,10.0,WNW,11.5,-,N/A,,Clear,290,2014-01-13 09:55:00
4:15 AM,32.5,28.4,85,29.75,10.0,WNW,11.5,-,N/A,,Clear,290,2014-01-13 10:15:00
4:35 AM,32.0,28.2,86,29.76,10.0,West,8.1,-,N/A,,Clear,280,2014-01-13 10:35:00
4:55 AM,32.4,28.9,87,29.77,10.0,WNW,11.5,-,N/A,,Clear,290,2014-01-13 10:55:00
5:15 AM,34.3,30.9,87,29.78,10.0,WNW,12.7,-,N/A,,Scattered Clouds,300,2014-01-13 11:15:00
5:35 AM,34.9,31.1,86,29.79,10.0,WNW,13.8,-,N/A,,Mostly Cloudy,300,2014-01-13 11:35:00
5:55 AM,34.7,30.9,86,29.80,10.0,NW,16.1,19.6,N/A,,Scattered Clouds,310,2014-01-13 11:55:00
6:15 AM,32.9,28.9,85,29.81,10.0,NW,11.5,-,N/A,,Scattered Clouds,310,2014-01-13 12:15:00
6:35 AM,32.5,27.3,81,29.81,10.0,NW,16.1,21.9,N/A,,Clear,310,2014-01-13 12:35:00
6:55 AM,31.3,26.1,81,29.81,10.0,NW,10.4,-,N/A,,Clear,310,2014-01-13 12:55:00
7:15 AM,29.1,25.2,85,29.81,10.0,WNW,10.4,-,N/A,,Clear,300,2014-01-13 13:15:00
7:35 AM,27.7,24.8,89,29.82,10.0,WNW,9.2,-,N/A,,Clear,300,2014-01-13 13:35:00
7:55 AM,25.9,23.5,91,29.83,10.0,WNW,9.2,-,N/A,,Clear,290,2014-01-13 13:55:00
8:15 AM,25.5,23.9,94,29.84,10.0,WNW,6.9,-,N/A,,Clear,290,2014-01-13 14:15:00
8:35 AM,25.7,23.7,92,29.84,10.0,West,5.8,-,N/A,,Clear,280,2014-01-13 14:35:00
8:55 AM,28.0,25.2,89,29.85,10.0,WNW,5.8,-,N/A,,Clear,290,2014-01-13 14:55:00
9:15 AM,29.7,25.7,85,29.85,10.0,West,6.9,-,N/A,,Clear,270,2014-01-13 15:15:00
9:35 AM,31.3,26.2,82,29.86,10.0,West,9.2,-,N/A,,Clear,280,2014-01-13 15:35:00
9:55 AM,33.1,27.3,79,29.86,10.0,West,8.1,-,N/A,,Clear,280,2014-01-13 15:55:00
10:15 AM,35.1,27.9,75,29.85,10.0,West,9.2,-,N/A,,Clear,270,2014-01-13 16:15:00
10:35 AM,36.5,28.9,74,29.86,10.0,West,12.7,-,N/A,,Clear,270,2014-01-13 16:35:00
10:55 AM,38.3,29.8,72,29.85,10.0,West,12.7,-,N/A,,Clear,260,2014-01-13 16:55:00
11:15 AM,38.3,28.0,67,29.85,10.0,West,11.5,16.1,N/A,,Clear,270,2014-01-13 17:15:00
11:35 AM,39.4,28.0,64,29.84,10.0,West,10.4,-,N/A,,Clear,270,2014-01-13 17:35:00
11:55 AM,40.1,27.5,61,29.84,10.0,West,11.5,-,N/A,,Clear,270,2014-01-13 17:55:00
12:15 PM,41.0,27.1,58,29.83,10.0,West,13.8,-,N/A,,Clear,280,2014-01-13 18:15:00
12:35 PM,41.2,27.0,57,29.81,10.0,West,9.2,-,N/A,,Clear,260,2014-01-13 18:35:00
12:55 PM,42.8,26.8,53,29.79,10.0,WSW,13.8,-,N/A,,Clear,250,2014-01-13 18:55:00
1:15 PM,41.5,24.6,51,29.78,10.0,WSW,6.9,-,N/A,,Clear,250,2014-01-13 19:15:00
1:35 PM,43.9,25.5,48,29.76,10.0,WSW,6.9,-,N/A,,Clear,250,2014-01-13 19:35:00
1:55 PM,45.3,25.9,47,29.75,10.0,West,5.8,-,N/A,,Clear,270,2014-01-13 19:55:00
2:15 PM,46.6,25.7,44,29.75,10.0,WSW,10.4,-,N/A,,Clear,240,2014-01-13 20:15:00
2:35 PM,47.3,25.9,43,29.74,10.0,WSW,10.4,-,N/A,,Clear,240,2014-01-13 20:35:00
2:55 PM,47.7,25.7,42,29.74,10.0,SW,8.1,-,N/A,,Clear,230,2014-01-13 20:55:00
3:15 PM,47.3,25.0,42,29.74,10.0,SSW,8.1,16.1,N/A,,Clear,210,2014-01-13 21:15:00
3:35 PM,47.5,25.5,42,29.74,10.0,SSW,6.9,-,N/A,,Clear,200,2014-01-13 21:35:00
3:55 PM,47.5,25.0,41,29.74,10.0,SSW,10.4,-,N/A,,Clear,210,2014-01-13 21:55:00
4:15 PM,47.3,24.6,41,29.74,10.0,SSW,8.1,-,N/A,,Clear,200,2014-01-13 22:15:00
4:35 PM,45.0,25.7,47,29.74,10.0,SSW,9.2,-,N/A,,Clear,200,2014-01-13 22:35:00
4:55 PM,44.4,26.2,49,29.73,10.0,South,6.9,-,N/A,,Clear,190,2014-01-13 22:55:00
5:15 PM,42.4,26.1,52,29.73,10.0,South,6.9,-,N/A,,Scattered Clouds,170,2014-01-13 23:15:00
5:35 PM,42.1,26.4,54,29.72,10.0,South,6.9,-,N/A,,Clear,170,2014-01-13 23:35:00
5:55 PM,41.2,26.6,56,29.71,10.0,South,6.9,-,N/A,,Clear,170,2014-01-13 23:55:00
6:15 PM,41.2,27.0,57,29.71,10.0,South,6.9,-,N/A,,Clear,170,2014-01-14 00:15:00
6:35 PM,40.1,27.1,60,29.70,10.0,South,6.9,-,N/A,,Clear,170,2014-01-14 00:35:00
6:55 PM,39.9,27.1,60,29.69,10.0,South,8.1,-,N/A,,Clear,190,2014-01-14 00:55:00
7:15 PM,41.0,27.3,58,29.69,10.0,South,8.1,-,N/A,,Clear,190,2014-01-14 01:15:00
7:35 PM,39.7,26.6,59,29.69,10.0,SSW,8.1,-,N/A,,Clear,210,2014-01-14 01:35:00
7:55 PM,38.7,26.1,61,29.69,10.0,SSW,9.2,-,N/A,,Clear,210,2014-01-14 01:55:00
8:15 PM,37.6,25.5,62,29.69,10.0,SSW,9.2,-,N/A,,Clear,210,2014-01-14 02:15:00
8:35 PM,37.4,25.3,62,29.69,10.0,SSW,9.2,-,N/A,,Clear,210,2014-01-14 02:35:00
8:55 PM,37.8,25.0,60,29.69,10.0,SW,8.1,-,N/A,,Clear,220,2014-01-14 02:55:00
9:15 PM,37.0,25.2,62,29.68,10.0,SW,6.9,-,N/A,,Clear,220,2014-01-14 03:15:00
9:35 PM,38.8,25.7,59,29.68,10.0,SW,9.2,-,N/A,,Clear,230,2014-01-14 03:35:00
9:55 PM,39.6,26.2,59,29.68,10.0,SW,9.2,-,N/A,,Clear,230,2014-01-14 03:55:00
10:15 PM,38.5,26.2,61,29.68,10.0,WSW,5.8,-,N/A,,Clear,240,2014-01-14 04:15:00
10:35 PM,40.5,28.0,61,29.69,10.0,West,9.2,-,N/A,,Clear,260,2014-01-14 04:35:00
10:55 PM,39.2,30.9,72,29.69,10.0,West,8.1,-,N/A,Rain,Light Rain,270,2014-01-14 04:55:00
11:15 PM,39.6,32.5,76,29.67,10.0,West,8.1,-,N/A,,Mostly Cloudy,270,2014-01-14 05:15:00
11:35 PM,37.8,31.3,77,29.67,10.0,West,8.1,-,N/A,,Clear,280,2014-01-14 05:35:00
11:55 PM,41.4,32.0,69,29.65,10.0,WSW,10.4,-,N/A,,Clear,250,2014-01-14 05:55:00